Location: Buchdorf
(48.7842°N, 10.8275°E)
Time: 00:28:46
(UTC+00:00)

SL-4 R/B - Pass Details

Date: 09 April 2020
Orbit: 428 x 666 km, 51.6° (Epoch: 04 June)

Event Time Altitude Azimuth Distance (km) Brightness Sun altitude
Rises 20:42:33 0° 281° (W) 2,395 6.1 -23.8°
Reaches altitude 10° 20:44:40 10° 287° (WNW) 1,534 5.1 -24.0°
Enters shadow 20:47:16 42° 320° (NW) 636 2.7 -24.3°
